Temperature
18 18 18 18 18 18 18 18 18 17 17 17 17 18 17 17 17 17 17 17 17 17 17 17 17 17 17 17 17 17 17 17 17 16 16 16 16 16 16 16 16 16 16
18 18 18 18 18 18 18 18 18 17 17 17 17 17 17 17 17 17 17 17 17 17 17 17 17 17 17 17 17 17 17 17 16 16 16 16 16 16 16 16 16 16 16
18 18 18 18 18 18 18 18 17 17 18 18 17 17 17 17 17 17 17 17 17 17 17 17 17 17 17 17 17 17 17 17 17 16 16 16 16 16 16 16 16 16 16
18 18 18 18 18 17 17 17 17 18 18 17 17 17 18 17 17 17 17 17 17 17 17 17 17 17 17 17 17 17 17 17 17 17 17 16 16 16 16 16 16 16 16
18 18 18 18 18 17 18 18 17 17 17 17 18 18 18 18 17 17 17 17 17 17 17 17 17 17 17 17 17 17 17 17 17 17 17 16 16 16 16 16 16 16 16
18 18 18 17 17 17 17 17 17 17 17 17 18 18 18 18 18 18 17 17 17 17 17 17 17 17 17 17 17 17 17 17 17 17 17 16 16 16 16 16 16 16 16
18 18 17 17 17 17 17 17 17 17 17 17 18 18 18 18 18 18 18 17 17 17 17 17 17 17 17 17 17 17 17 17 17 17 17 16 16 16 16 16 16 16 16
18 18 18 17 17 17 17 17 17 17 17 17 17 18 19 19 18 18 18 17 17 17 17 17 17 17 17 17 17 17 17 17 17 17 16 16 16 16 16 16 16 16 15
18 18 18 17 17 17 17 17 17 17 17 17 17 18 18 19 19 18 18 18 17 17 17 17 17 17 17 17 17 17 17 17 17 17 16 16 16 16 16 16 16 16 15
18 18 18 18 18 17 17 17 17 17 17 17 17 17 17 17 18 18 18 18 18 17 17 17 17 17 17 17 17 17 17 17 17 17 17 16 16 16 16 16 16 16 16
18 18 18 18 18 17 17 17 17 17 17 17 17 17 17 17 17 18 18 18 18 18 17 17 17 17 17 17 17 17 17 17 16 16 16 16 16 16 16 16 16 16 15
18 18 18 18 17 17 17 17 17 17 17 17 17 17 17 17 17 18 18 18 18 18 17 17 17 17 17 17 16 16 17 16 16 16 16 16 16 16 16 16 16 15 15
18 18 17 18 17 17 17 17 17 17 17 17 17 17 17 17 17 17 17 17 17 18 17 17 17 17 17 16 16 17 17 16 16 16 16 16 16 16 16 16 15 15 15
18 18 17 17 17 17 17 17 17 17 17 17 17 17 17 17 17 17 17 17 17 18 18 17 17 17 16 16 16 16 16 16 16 16 16 16 16 16 16 16 15 15 15
17 17 17 17 17 17 17 17 17 17 17 17 16 16 16 16 16 16 16 17 17 17 18 18 17 17 16 16 16 16 16 16 16 16 16 16 16 16 16 15 15 15 15
18 18 17 17 17 17 17 17 17 16 16 16 16 16 16 16 16 16 16 16 16 17 17 18 17 17 16 16 16 16 16 16 16 16 16 16 16 16 15 15 15 15 15
18 18 17 17 17 17 17 17 17 16 16 16 16 16 16 16 16 16 16 16 16 16 16 17 17 16 16 16 16 16 16 16 16 16 16 16 16 15 15 15 15 15 15
18 18 17 17 17 17 17 17 17 16 16 16 16 16 16 16 16 16 16 16 16 16 16 16 16 16 16 15 15 16 15 16 16 16 16 16 16 15 15 15 15 15 15
18 17 17 17 17 17 17 17 17 17 16 16 16 16 16 16 16 16 16 16 16 16 16 15 16 16 16 15 15 15 15 15 15 16 16 16 15 15 15 15 15 15 15
17 17 17 17 17 17 17 17 17 17 16 16 16 16 16 16 16 16 15 15 15 15 15 15 15 15 15 15 15 15 15 15 15 15 15 15 15 15 15 15 15 15 14
17 17 17 17 17 17 17 16 17 16 16 16 16 16 16 16 16 16 15 15 15 15 15 15 15 15 15 15 15 15 15 15 15 15 14 15 15 15 15 15 15 14 14
18 17 17 17 17 17 17 17 17 16 16 16 16 16 16 16 16 16 15 15 15 15 15 15 15 15 15 14 14 14 14 14 14 14 14 14 14 14 14 14 14 14 14
17 17 17 17 17 17 17 17 17 16 16 16 16 16 16 15 15 15 15 15 15 15 15 15 14 14 14 14 14 14 14 14 14 14 14 14 14 14 14 14 14 14 14
17 17 17 17 17 16 17 16 16 16 16 16 15 15 15 15 15 15 15 15 15 15 14 14 14 14 14 14 14 14 14 13 14 14 13 13 14 14 13 13 13 13 13
17 17 16 16 16 16 16 16 16 16 15 15 15 15 15 15 15 15 14 14 14 14 14 14 14 14 14 14 14 13 13 13 13 13 13 13 13 13 13 13 13 13 13
16 16 16 16 16 16 16 16 16 15 15 15 15 15 15 15 15 15 14 14 14 14 14 14 14 14 14 13 13 13 13 13 13 13 13 13 13 13 13 13 13 13 13
Wind_Speed
1 1 1 1 1 2 3 2 2 3 3 3 3 4 4 4 4 4 5 9 9 8 8 7 8 8 8 8 8 8 9 9 9 9 10 10 10 10 10 9 9 9 9
1 1 1 1 1 1 2 1 2 2 2 2 3 3 4 3 4 4 4 7 9 9 8 8 7 7 7 8 8 9 9 9 10 10 10 10 10 9 10 10 10 9 9
1 1 1 1 1 2 2 1 1 1 2 3 3 3 3 3 3 4 4 5 7 10 10 9 8 8 8 8 9 9 10 10 10 11 11 10 10 10 10 10 10 10 9
1 0 1 1 1 1 2 2 1 1 1 2 2 2 2 2 3 5 5 5 5 5 9 11 9 9 9 9 9 10 10 11 11 11 12 11 11 11 10 10 10 9 9
1 1 1 1 1 1 1 1 1 0 1 1 2 2 2 2 3 3 4 5 5 5 5 9 11 11 10 9 9 10 10 11 11 12 12 12 12 11 11 11 10 9 9
1 1 1 1 1 1 1 1 1 0 1 1 1 1 2 2 2 2 3 4 4 6 6 6 7 10 12 10 10 10 10 11 11 12 12 12 12 12 11 11 10 10 9
1 1 1 1 1 1 1 1 0 1 1 1 1 1 1 2 2 2 3 3 4 5 5 5 6 5 7 12 11 10 10 10 11 11 12 12 11 11 12 12 11 11 10
1 1 0 1 1 1 1 0 1 2 1 1 1 2 1 2 2 2 2 3 3 3 4 6 5 5 5 5 6 9 9 8 9 9 10 11 11 10 10 11 12 12 11
1 1 0 1 1 1 0 0 2 2 2 1 2 2 2 1 1 1 2 2 2 2 3 3 4 5 5 4 4 7 8 7 7 8 9 10 10 10 10 10 11 11 11
0 0 1 1 1 1 1 2 1 2 3 2 1 2 2 2 2 2 2 2 2 3 3 4 4 5 5 5 3 3 5 7 8 8 8 9 10 11 11 11 11 11 11
0 1 1 1 1 1 1 2 2 3 2 3 2 2 2 2 3 3 3 2 2 2 3 4 4 4 4 5 5 5 6 6 7 7 8 10 10 11 12 12 12 11 11
0 0 1 1 1 2 2 2 3 3 3 3 3 3 3 2 2 3 3 4 4 3 3 3 4 3 4 5 5 4 5 7 7 8 9 9 10 11 12 12 12 12 12
1 0 1 1 2 2 3 3 4 4 4 4 4 4 3 3 3 3 4 4 5 4 3 4 4 4 4 4 4 5 7 8 9 10 10 10 10 10 11 11 12 12 11
1 1 1 1 2 3 3 3 4 4 4 4 5 4 4 4 4 3 4 4 5 5 4 4 3 4 4 5 3 6 6 9 9 10 10 10 10 10 10 11 12 12 11
1 1 2 2 2 3 4 4 3 4 4 4 5 5 5 4 4 4 4 5 5 6 5 4 3 3 4 5 4 6 6 8 9 10 11 11 11 10 10 11 10 10 11
2 2 2 3 3 3 4 4 4 4 5 5 4 5 5 5 4 5 5 5 6 6 6 4 4 4 3 5 6 7 7 8 11 11 11 11 11 11 11 11 11 11 12
3 3 3 3 4 4 4 4 5 5 5 5 5 5 5 6 5 5 5 5 6 6 7 6 5 3 4 6 5 6 8 8 8 13 12 11 11 11 12 12 12 12 12
3 3 4 4 4 4 4 5 5 5 5 5 6 6 6 5 6 6 6 6 6 6 7 8 6 5 5 5 5 6 6 6 7 9 12 12 12 12 12 13 13 13 12
4 4 4 4 4 4 4 5 5 5 5 6 6 6 7 6 7 6 7 7 6 6 6 7 7 5 5 4 5 6 7 5 8 7 11 13 13 13 13 14 14 14 14
4 4 4 4 4 4 4 4 4 5 6 6 6 7 6 7 7 7 7 7 7 7 7 7 7 6 5 4 5 5 6 5 6 6 6 7 10 14 14 15 15 15 14
5 4 4 5 5 5 4 4 5 5 6 6 6 7 6 6 6 7 7 7 7 7 7 7 7 6 5 4 5 5 6 6 6 6 5 6 6 7 9 12 14 14 14
5 5 5 5 5 4 1 3 6 6 6 6 6 7 7 7 7 9 9 9 9 8 8 7 8 7 7 6 6 6 6 6 6 4 5 6 5 6 6 7 9 13 14
5 6 6 6 6 4 3 5 7 7 7 6 7 7 7 6 6 8 8 10 10 10 10 9 9 9 8 7 7 8 7 7 8 6 5 6 5 6 6 5 9 12 14
5 5 5 6 6 5 4 5 7 8 7 7 7 8 8 8 7 7 9 9 8 8 9 9 9 9 8 6 7 8 8 8 8 7 5 6 5 5 5 4 8 10 12
5 6 5 6 6 6 4 5 6 7 6 8 8 7 8 7 5 6 8 9 9 8 7 8 9 9 8 7 7 7 7 7 7 6 5 6 6 5 5 5 5 10 12
5 6 5 5 6 6 4 5 6 6 7 7 7 7 6 6 5 5 8 8 8 8 7 6 6 7 8 8 10 9 8 7 7 6 5 5 6 5 5 5 4 5 7
Wind_Direction
109 117 92 126 141 135 146 159 153 152 167 174 188 186 193 189 193 198 164 170 185 198 205 207 206 207 209 210 213 213 212 213 214 215 216 219 221 224 223 223 223 222 220
66 82 112 118 113 109 104 156 152 175 180 169 185 193 204 195 196 204 193 175 186 197 204 208 212 211 210 213 218 218 217 215 215 214 213 214 214 216 215 215 217 217 220
82 90 86 113 96 106 126 149 149 178 179 178 188 198 202 208 205 205 208 201 191 193 198 203 207 211 216 219 222 221 221 219 217 214 210 209 210 212 211 213 215 218 222
75 58 83 97 116 142 141 146 182 183 165 192 196 211 206 199 219 209 203 204 207 200 191 194 204 215 220 222 224 226 226 223 220 214 209 207 208 210 211 213 214 218 221
85 75 55 75 153 136 138 178 123 170 173 208 221 209 220 213 221 215 211 210 207 210 207 189 201 214 221 225 226 228 229 225 217 212 210 208 208 209 208 210 214 220 217
102 44 115 116 136 110 117 103 91 101 245 233 260 259 240 230 221 219 225 214 209 212 216 216 209 207 212 221 225 228 230 223 217 214 210 210 209 209 210 212 214 217 218
118 77 42 116 153 114 100 125 183 208 238 259 282 292 252 215 197 217 219 228 221 219 221 223 229 224 207 209 219 228 231 224 220 217 212 209 208 210 213 215 215 218 220
125 170 117 206 167 137 162 228 271 285 276 273 284 284 267 205 192 196 200 208 228 227 225 222 220 226 237 222 191 207 217 222 217 212 212 210 211 214 215 215 219 219 219
109 357 313 254 238 259 99 304 276 274 274 282 287 285 291 320 329 194 204 220 234 248 244 231 224 225 231 228 212 187 196 208 211 213 216 211 212 212 215 219 221 220 220
134 263 287 260 239 252 261 266 278 271 267 272 272 266 281 297 289 287 227 201 220 239 256 255 244 231 228 225 210 184 188 213 218 218 215 215 216 214 215 218 220 219 220
284 263 242 265 258 257 260 281 290 278 269 277 285 285 279 245 247 272 290 293 275 262 260 254 252 238 229 228 227 196 189 212 216 219 220 218 218 220 219 219 219 219 220
232 272 233 263 262 277 275 268 273 268 281 287 282 274 277 273 269 268 276 276 282 280 265 258 252 243 236 235 228 160 204 215 216 221 224 223 223 223 221 221 221 222 222
261 338 293 267 268 269 264 263 261 272 273 271 267 272 276 271 272 270 267 277 283 278 260 247 237 241 239 238 220 179 218 214 219 224 225 225 226 225 224 223 222 223 224
295 316 270 261 257 260 260 256 262 265 264 265 268 275 272 270 270 266 263 274 280 277 261 259 243 230 242 247 211 207 227 204 215 222 224 226 224 221 223 222 224 224 222
261 254 253 251 256 263 269 267 263 270 272 266 266 263 265 268 266 266 261 257 266 278 280 262 250 234 238 245 216 238 245 201 210 221 222 223 219 217 218 219 220 219 216
263 257 262 265 266 269 270 268 265 266 268 268 268 274 271 271 265 261 262 263 262 268 277 277 267 267 255 259 226 241 244 208 211 212 214 218 219 218 218 216 217 218 215
245 251 262 273 276 275 275 271 270 270 269 271 271 267 267 273 271 271 265 261 261 263 266 275 276 272 254 258 256 251 246 238 226 201 207 215 221 223 224 221 219 217 215
244 248 259 265 271 273 272 270 268 263 264 268 271 273 273 269 267 269 271 267 267 264 262 269 272 268 260 248 252 257 252 245 247 198 200 213 220 224 225 224 221 218 215
248 254 257 263 270 273 270 268 268 266 267 267 269 272 275 276 273 272 269 270 269 265 263 265 268 267 267 257 255 255 256 251 251 221 202 210 216 221 224 224 220 217 215
247 253 258 262 266 269 271 273 271 266 266 267 269 269 270 272 272 272 266 264 266 268 263 262 265 265 259 256 251 258 262 252 254 253 234 221 213 216 221 222 219 216 214
247 248 253 258 261 263 271 280 276 268 268 268 270 270 265 265 270 270 273 272 267 264 265 264 264 266 263 263 263 263 264 267 261 252 246 237 223 226 220 217 216 214 213
251 252 253 258 263 270 303 288 280 275 275 274 273 273 268 258 258 246 250 258 262 260 267 268 268 266 264 262 267 265 265 267 272 254 248 254 245 242 231 226 203 201 208
247 250 255 258 262 266 251 260 269 272 274 276 273 271 274 274 267 271 253 241 247 243 246 257 265 269 270 265 265 264 258 262 267 265 253 260 253 247 241 221 188 199 205
249 253 255 257 261 260 236 250 266 261 270 271 268 268 270 275 274 277 275 270 266 256 245 246 254 261 266 271 262 262 264 261 261 255 238 254 254 252 251 230 192 198 204
249 254 252 255 260 262 238 248 265 271 267 268 269 266 265 269 277 276 269 270 271 269 250 240 243 249 253 252 254 258 259 257 261 259 237 249 261 260 256 240 203 194 202
251 256 256 260 265 273 252 238 250 271 274 276 270 264 247 256 269 266 269 270 271 274 275 270 250 242 245 243 232 239 249 255 261 264 240 237 256 260 262 249 230 215 212
Height
1532 1532 1532 1532 1533 1534 1534 1534 1535 1535 1536 1537 1538 1539 1540 1541 1542 1543 1543 1542 1543 1543 1544 1544 1544 1545 1545 1546 1547 1547 1548 1548 1549 1550 1550 1551 1552 1552 1553 1553 1554 1555 1556
1531 1532 1532 1532 1533 1533 1534 1534 1534 1535 1536 1536 1537 1537 1537 1539 1540 1541 1542 1541 1541 1542 1542 1543 1543 1543 1544 1544 1545 1545 1546 1547 1547 1548 1548 1549 1549 1550 1550 1551 1552 1552 1553
1531 1531 1532 1532 1533 1533 1533 1533 1534 1534 1535 1536 1536 1537 1537 1537 1538 1539 1540 1540 1540 1540 1541 1541 1542 1542 1542 1543 1543 1543 1544 1544 1545 1545 1546 1546 1547 1548 1548 1549 1549 1550 1550
1531 1531 1532 1532 1532 1533 1533 1533 1533 1534 1534 1535 1536 1536 1537 1536 1537 1538 1538 1538 1539 1539 1540 1540 1540 1540 1540 1540 1541 1541 1542 1542 1542 1543 1543 1544 1545 1545 1546 1546 1547 1547 1547
1531 1531 1531 1531 1532 1532 1533 1533 1533 1533 1533 1534 1535 1535 1536 1536 1536 1536 1536 1536 1537 1538 1539 1538 1538 1538 1538 1538 1539 1539 1539 1539 1540 1540 1541 1541 1542 1543 1543 1543 1544 1544 1544
1531 1531 1532 1531 1532 1532 1532 1532 1532 1532 1533 1533 1534 1534 1534 1534 1535 1535 1535 1535 1535 1536 1537 1537 1537 1537 1536 1536 1536 1536 1537 1537 1537 1538 1538 1539 1539 1540 1541 1541 1541 1542 1542
1531 1531 1532 1531 1532 1532 1532 1532 1532 1532 1533 1533 1533 1533 1534 1533 1533 1533 1534 1534 1534 1535 1535 1535 1536 1535 1535 1534 1534 1534 1534 1534 1535 1535 1536 1536 1537 1538 1538 1539 1539 1539 1540
1531 1532 1531 1532 1532 1532 1532 1532 1532 1533 1533 1533 1533 1533 1533 1534 1532 1533 1532 1532 1533 1533 1534 1534 1533 1532 1533 1533 1532 1532 1532 1532 1532 1533 1533 1534 1534 1535 1535 1536 1536 1537 1537
1532 1531 1531 1531 1531 1532 1532 1532 1532 1532 1533 1533 1532 1533 1532 1531 1532 1532 1531 1532 1531 1532 1532 1532 1532 1531 1531 1531 1530 1530 1530 1530 1530 1530 1530 1531 1531 1532 1532 1533 1533 1534 1534
1532 1531 1531 1531 1531 1531 1531 1532 1532 1532 1532 1532 1532 1531 1531 1531 1531 1530 1531 1531 1530 1530 1530 1530 1530 1529 1529 1529 1528 1527 1527 1527 1527 1527 1527 1528 1529 1529 1530 1530 1530 1531 1531
1532 1531 1531 1530 1530 1531 1531 1531 1531 1531 1531 1531 1531 1531 1530 1530 1530 1530 1529 1529 1529 1529 1528 1528 1528 1527 1527 1526 1525 1525 1525 1524 1524 1524 1524 1525 1525 1526 1527 1527 1527 1528 1528
1531 1531 1530 1530 1530 1530 1530 1530 1530 1530 1530 1530 1529 1529 1529 1529 1529 1528 1528 1527 1527 1527 1526 1525 1525 1525 1524 1524 1523 1522 1522 1522 1522 1521 1521 1522 1522 1522 1523 1524 1524 1525 1525
1531 1530 1530 1529 1529 1529 1529 1529 1528 1529 1528 1528 1527 1528 1527 1527 1527 1526 1526 1525 1524 1524 1523 1523 1523 1523 1522 1522 1521 1519 1519 1518 1518 1518 1518 1518 1519 1519 1520 1520 1521 1521 1522
1531 1529 1529 1529 1528 1528 1528 1527 1527 1527 1527 1526 1526 1525 1525 1524 1524 1524 1524 1523 1522 1522 1521 1521 1520 1520 1519 1519 1518 1517 1516 1515 1514 1514 1514 1515 1515 1515 1516 1517 1517 1518 1518
1530 1528 1528 1528 1527 1526 1526 1526 1525 1525 1524 1524 1524 1523 1522 1522 1522 1521 1521 1521 1521 1519 1518 1518 1518 1517 1516 1516 1515 1514 1513 1512 1511 1511 1511 1511 1511 1511 1512 1513 1513 1514 1514
1528 1527 1527 1526 1526 1525 1524 1524 1524 1523 1522 1522 1521 1520 1520 1520 1519 1519 1519 1518 1518 1517 1516 1515 1515 1514 1513 1513 1512 1511 1510 1509 1508 1508 1507 1507 1507 1508 1508 1508 1509 1509 1510
1526 1525 1525 1525 1524 1523 1523 1522 1522 1521 1520 1519 1519 1518 1517 1516 1516 1516 1515 1515 1514 1514 1512 1512 1512 1511 1509 1508 1508 1507 1506 1506 1505 1504 1504 1503 1503 1503 1504 1504 1504 1505 1506
1524 1523 1523 1522 1522 1521 1520 1520 1519 1518 1518 1517 1516 1515 1514 1514 1513 1512 1512 1511 1511 1510 1509 1508 1507 1507 1506 1505 1504 1503 1503 1503 1502 1501 1500 1500 1499 1499 1499 1500 1500 1500 1501
1522 1521 1521 1520 1520 1519 1518 1517 1516 1516 1515 1514 1513 1512 1511 1510 1509 1509 1508 1508 1507 1507 1505 1504 1503 1503 1502 1502 1501 1500 1500 1498 1498 1498 1496 1495 1495 1495 1495 1495 1495 1496 1496
1519 1519 1518 1518 1517 1516 1515 1514 1513 1513 1512 1511 1510 1509 1508 1507 1506 1505 1505 1504 1503 1502 1502 1501 1500 1500 1499 1498 1497 1497 1496 1495 1494 1494 1493 1492 1491 1490 1490 1490 1490 1491 1491
1517 1516 1516 1515 1514 1513 1513 1511 1510 1510 1508 1507 1506 1505 1505 1503 1502 1501 1501 1500 1499 1498 1498 1497 1497 1496 1495 1494 1494 1493 1492 1491 1491 1490 1489 1488 1487 1486 1486 1486 1486 1486 1486
1514 1513 1513 1512 1511 1511 1509 1508 1507 1506 1505 1504 1502 1502 1501 1500 1498 1497 1496 1495 1495 1494 1493 1493 1492 1492 1491 1490 1490 1489 1488 1487 1487 1486 1485 1484 1484 1482 1482 1481 1481 1481 1482
1511 1510 1509 1509 1508 1507 1506 1504 1503 1502 1501 1500 1499 1498 1497 1496 1494 1493 1492 1491 1490 1489 1488 1488 1487 1486 1486 1485 1485 1484 1483 1482 1482 1482 1481 1479 1479 1478 1478 1478 1477 1477 1477
1507 1506 1506 1505 1504 1503 1502 1501 1499 1498 1497 1496 1495 1493 1492 1491 1490 1489 1487 1487 1486 1484 1484 1483 1482 1481 1481 1480 1479 1479 1478 1477 1477 1477 1476 1475 1475 1474 1474 1473 1472 1472 1472
1503 1503 1502 1501 1500 1499 1498 1497 1495 1494 1493 1492 1491 1489 1487 1486 1485 1484 1483 1482 1481 1480 1479 1478 1477 1476 1475 1475 1475 1474 1474 1473 1472 1472 1472 1471 1471 1470 1469 1468 1467 1467 1467
1500 1499 1499 1498 1496 1495 1494 1493 1491 1490 1489 1488 1486 1485 1483 1482 1481 1480 1479 1478 1476 1475 1474 1473 1472 1471 1470 1470 1469 1469 1469 1468 1468 1467 1467 1467 1466 1466 1465 1464 1463 1463 1462